Location: Lincolnton
(35.4660°N, 81.2500°W)
Time: 07:14:25
(UTC-05:00)

Hubble Space Telescope - Visible Passes

Search period start: 19 December 2014 00:00
Search period end: 29 December 2014 00:00
Orbit: 545 x 549 km, 28.5° (Epoch: 18 December)

Date Brightness Start Highest point End Pass type
(mag) Time Alt. Az. Time Alt. Az. Time Alt. Az.
19 Dec 2.4 18:14:33 10° WSW 18:18:11 29° S 18:21:48 10° SE visible
19 Dec 3.5 19:56:25 10° WSW 19:57:46 15° SW 19:57:46 15° SW visible
20 Dec 2.6 18:06:50 10° WSW 18:10:22 27° S 18:13:54 10° SE visible
20 Dec 3.5 19:49:09 10° SW 19:50:50 13° SSW 19:50:50 13° SSW visible
21 Dec 2.8 17:59:09 10° WSW 18:02:33 24° SSW 18:05:56 10° SE visible
21 Dec 3.6 19:42:29 10° SW 19:43:18 11° SSW 19:44:01 10° SSW visible
22 Dec 3.1 17:51:31 10° WSW 17:54:42 21° SSW 17:57:53 10° SE visible
23 Dec 3.4 17:43:57 10° WSW 17:46:50 18° SSW 17:49:43 10° SSE visible
